Location: Clanezzo
(45.7500°N, 9.6000°E)
Time: 11:42:38
(UTC+00:00)

Cosmos 773 Rocket - Visible Passes

Search period start: 28 September 2021 00:00
Search period end: 08 October 2021 00:00
Orbit: 745 x 777 km, 74.1° (Epoch: 27 September)

Date Brightness Start Highest point End Pass type
(mag) Time Alt. Az. Time Alt. Az. Time Alt. Az.
28 Sep 5.4 18:29:48 10° NW 18:34:42 40° WSW 18:39:36 10° S visible
29 Sep 4.4 17:50:26 10° NNW 17:55:41 69° WSW 18:00:57 10° S visible
30 Sep 6.8 18:54:39 10° WNW 18:57:51 16° W 19:01:03 10° SW visible
01 Oct 6.2 18:14:34 10° NW 18:19:01 28° W 18:23:28 10° SSW visible
02 Oct 5.2 17:35:01 10° NNW 17:40:06 48° WSW 17:45:09 10° S visible
03 Oct 7.3 18:40:38 10° WNW 18:42:03 11° W 18:43:28 10° WSW visible
04 Oct 6.9 17:59:33 10° NW 18:03:18 20° W 18:07:03 10° SW visible
05 Oct 6.1 17:19:43 10° NW 17:24:27 34° WSW 17:29:10 10° SSW visible
07 Oct 7.4 17:44:57 10° WNW 17:47:32 14° W 17:50:07 10° WSW visible
